Location: Unspecified
(41.5000°N, 0.0000°E)
Time: 03:20:42
(UTC+00:00)

Vanguard 2 - Pass Details

Date: 19 June 2019
Orbit: 553 x 2938 km, 32.9° (Epoch: 19 July)

Event Time Altitude Azimuth Distance (km) Brightness Sun altitude
Rises 15:28:49 0° 272° (W) 5,383 12.6 43.5°
Reaches altitude 10° 15:32:58 10° 259° (W) 4,732 12.7 42.7°
Maximum altitude 15:43:12 25° 213° (SSW) 4,283 12.1 40.8°
Drops below altitude 10° 15:55:36 10° 167° (SSE) 5,747 12.0 38.5°
Sets 16:01:29 0° 156° (SSE) 6,764 12.1 37.4°
